{"data":{"norad_id":59202,"epoch":"2026-05-24T10:59:11.573376Z","epoch_age_seconds":115129,"freshness":"FRESH","line1":"1 59202U 24046B   26144.45777284  .00000020  00000+0  11716-4 0  9996","line2":"2 59202  53.1601 162.4391 0001143  84.0679 276.0453 15.34391226124667","mean_motion":15.34391226,"eccentricity":0.0001143,"inclination_deg":53.1601,"raan_deg":162.4391,"arg_perigee_deg":84.0679,"mean_anomaly_deg":276.0453,"bstar":1.1716e-5,"rev_number":12466,"period_min":93.848294724282,"perigee_km":461.9474074882,"apogee_km":463.51122952861,"semimajor_km":6840.8663185084,"source":"CELESTRAK","updated_at":"2026-05-25T13:38:18.863887Z"}}